Wetbulb
36.81 37.44 37.50 37.34 37.33 37.80 37.78 37.11 37.85 37.79 39.76 41.13 42.15 42.78 44.85 49.63 57.42 56.90 57.41 56.48 55.15 59.86 60.22 60.25 60.64 61.24 60.84 59.61 58.38 58.68 56.34 56.47 54.23 55.87 58.40 58.40 58.84 59.28 59.39 58.77 58.60 58.20 57.15
36.20 37.03 36.87 37.06 36.62 36.47 36.36 37.11 37.55 35.95 37.49 38.94 40.82 40.76 41.83 43.88 47.31 56.75 56.96 57.01 56.42 56.02 60.28 60.03 60.42 61.00 60.66 60.36 58.29 57.75 57.77 57.01 55.52 52.79 55.76 56.62 58.05 59.16 59.61 57.92 58.51 58.70 58.41
35.19 35.25 36.70 36.34 35.09 35.78 35.89 36.25 36.78 35.87 35.83 36.01 38.87 38.66 39.99 40.97 42.86 46.52 54.42 56.88 56.62 57.39 56.60 60.71 60.51 60.83 60.22 60.31 58.53 58.37 58.19 56.92 57.83 55.38 53.86 56.26 57.91 58.43 57.87 57.97 58.33 58.80 58.48
34.10 33.68 36.09 35.18 34.62 35.50 35.66 35.60 35.71 35.83 34.61 34.86 35.19 37.26 37.99 38.84 39.39 42.42 46.47 50.16 54.01 54.00 55.13 58.08 61.11 60.94 60.46 60.18 58.58 58.51 58.28 57.37 56.24 56.18 53.53 53.98 55.34 55.26 58.53 57.30 56.32 57.84 57.89
32.44 32.97 35.34 34.58 34.58 35.23 35.02 34.38 35.09 34.70 34.52 34.49 33.44 34.15 36.60 36.38 37.72 39.01 42.52 43.66 45.04 45.96 47.18 50.90 44.86 43.85 45.16 54.16 59.15 58.58 58.15 57.05 55.95 55.68 54.66 52.28 52.71 53.07 56.41 57.19 57.44 57.44 58.01
31.73 31.83 35.23 32.65 33.69 34.17 33.88 33.77 33.80 33.71 33.22 33.53 33.17 33.17 34.04 35.45 35.84 36.68 38.52 39.84 39.73 40.45 41.81 43.13 43.29 40.41 41.04 40.45 41.79 49.33 56.31 56.89 56.65 55.57 55.95 53.69 53.75 56.11 57.29 56.64 57.30 54.60 52.29
31.41 31.64 32.78 31.45 31.51 33.11 33.31 33.15 32.71 32.86 33.35 32.61 32.68 33.00 33.29 33.98 35.52 35.96 35.98 37.26 37.84 37.33 36.93 38.49 39.24 39.32 38.36 40.38 41.03 42.60 44.31 47.75 51.29 57.37 56.44 56.02 55.44 55.51 56.89 56.38 56.05 55.18 55.94
31.31 30.54 30.88 30.69 31.26 31.86 32.30 32.43 32.59 32.84 32.85 32.48 32.46 32.98 32.98 33.69 35.08 35.17 34.92 35.39 35.68 35.88 36.53 36.17 36.35 36.42 35.96 37.29 42.53 45.51 52.08 53.43 52.15 55.02 58.62 58.49 58.00 57.45 57.57 58.18 57.44 57.20 49.78
30.06 29.59 30.16 30.45 30.57 30.68 30.68 31.64 32.48 32.08 32.08 32.25 32.51 32.63 32.41 33.01 34.68 34.99 34.10 33.82 33.80 33.83 35.01 35.60 34.83 34.97 34.79 36.06 39.47 41.43 45.42 53.13 48.50 44.49 47.49 49.48 47.54 47.22 53.24 57.02 49.61 47.49 42.60
29.70 29.87 30.63 30.98 30.82 30.28 30.63 30.96 32.39 32.82 32.04 32.11 31.68 32.54 32.96 31.91 34.07 35.23 34.35 32.99 31.70 32.54 33.77 34.23 34.01 33.98 34.25 34.61 36.60 37.35 37.89 37.76 38.79 40.09 49.73 50.23 46.28 49.57 44.81 57.43 57.29 53.73 50.12
30.10 30.77 30.77 30.65 30.63 31.03 31.01 31.21 31.15 31.93 31.99 31.52 31.49 32.10 31.68 32.04 32.99 34.57 34.75 33.01 32.19 31.33 31.81 32.23 32.96 33.93 34.39 34.37 34.34 35.58 34.87 34.47 33.86 35.46 38.53 46.62 54.77 54.69 52.70 53.08 58.69 57.19 53.43
29.75 29.98 29.99 30.39 29.96 30.19 29.70 29.88 30.62 30.77 31.05 30.79 30.74 30.92 31.84 32.20 32.91 33.34 33.53 33.84 33.71 31.16 31.38 31.98 32.67 33.87 33.92 33.77 33.35 33.88 33.67 33.67 34.94 35.48 34.59 34.59 35.87 47.02 55.50 54.75 54.67 57.36 56.89
29.21 29.02 29.27 28.50 28.50 28.74 28.62 29.30 29.45 30.13 30.16 30.44 30.30 28.97 29.33 30.99 31.35 32.70 33.09 33.46 33.01 31.78 31.79 32.31 32.55 32.42 32.66 32.18 32.83 32.95 32.87 33.71 33.17 33.35 33.35 33.17 33.17 34.44 33.71 33.88 34.97 37.52 35.89
28.54 28.23 28.62 27.70 28.34 27.92 29.89 30.13 29.16 29.40 29.43 30.05 29.21 28.77 28.62 29.35 30.06 31.83 32.44 33.12 33.25 32.29 30.54 31.62 30.87 29.76 29.46 31.35 32.32 32.86 32.90 33.17 32.81 32.81 32.78 32.99 33.70 34.24 34.42 33.86 33.86 34.42 37.70
28.18 27.78 28.69 29.06 28.34 28.49 29.18 29.23 29.25 30.21 30.11 29.29 29.32 29.58 28.22 27.84 29.82 32.06 32.18 32.31 32.72 32.25 31.76 32.16 31.97 31.99 31.47 30.62 31.15 31.67 32.75 32.85 32.70 32.61 32.60 32.96 33.32 34.05 34.23 34.41 33.68 33.86 34.61
27.43 27.08 27.37 28.18 28.76 27.52 27.15 28.12 30.66 30.64 31.50 31.57 31.77 29.96 30.24 31.29 31.97 31.96 32.40 33.20 33.04 32.17 31.75 30.91 31.17 31.82 31.40 31.58 31.68 31.04 29.82 32.04 32.47 32.70 32.55 32.75 32.94 33.14 33.68 34.05 33.68 33.86 34.05
26.71 27.94 27.13 27.93 27.45 26.75 27.14 27.22 26.17 28.95 30.92 30.69 30.89 31.13 31.02 31.35 31.98 31.56 31.94 32.11 31.88 31.93 30.15 30.17 30.40 31.22 31.77 32.10 32.13 32.16 31.97 33.05 32.47 32.36 32.66 32.91 32.73 32.93 32.76 32.78 33.12 33.12 33.50
27.88 27.66 27.78 27.23 27.47 27.23 27.19 27.29 27.15 26.04 25.62 26.62 28.56 30.17 30.29 30.71 31.58 31.46 31.27 30.38 28.32 30.01 30.07 29.96 29.85 30.62 31.37 31.71 32.09 32.30 32.64 32.96 32.75 32.52 32.01 32.52 32.99 32.60 32.57 32.37 32.76 33.12 33.12
27.62 27.31 26.39 27.19 27.30 27.05 26.70 26.23 26.30 26.08 25.97 26.62 25.67 27.89 28.52 29.24 30.05 30.48 30.53 27.71 27.10 28.19 28.88 29.51 30.39 30.48 30.83 31.37 31.77 31.98 32.25 32.24 32.48 32.39 32.51 32.30 32.08 32.03 32.31 32.58 32.76 32.58 32.94
28.06 24.80 26.38 26.34 25.76 25.71 25.74 25.47 25.36 25.29 24.81 23.86 24.81 25.48 27.20 26.82 25.36 25.57 26.56 27.38 27.26 28.11 28.48 28.73 29.56 30.39 30.49 30.60 30.77 31.23 31.24 31.61 32.01 32.43 32.39 32.43 32.63 32.48 32.28 32.45 32.55 32.60 32.55
23.16 25.75 25.77 26.21 25.90 25.90 25.55 25.30 24.53 23.53 22.95 23.28 24.01 25.27 24.39 25.28 25.11 25.84 25.79 26.72 27.49 28.07 28.11 28.57 28.68 28.88 29.76 30.03 30.14 30.13 30.31 30.51 31.02 31.77 32.18 32.43 32.43 32.10 32.57 32.61 32.69 32.97 33.15
24.40 25.65 25.49 24.96 25.35 25.41 25.40 25.26 23.90 23.55 23.36 22.50 22.72 23.98 22.98 24.63 24.45 25.23 25.63 25.92 26.84 28.51 29.10 29.04 28.82 29.02 29.00 28.82 28.81 29.31 29.60 29.77 30.30 30.64 31.02 31.79 32.04 32.24 32.27 32.10 32.14 32.54 32.82
28.26 26.56 25.10 24.63 24.58 23.85 24.10 22.82 23.11 21.85 21.89 22.49 22.87 23.01 23.27 23.55 23.63 23.93 24.57 25.29 26.01 27.11 28.22 28.62 28.37 28.01 28.68 28.66 28.67 29.50 29.07 28.99 29.99 30.49 29.97 30.48 30.87 31.59 32.28 32.06 32.07 31.90 32.10
28.18 26.48 26.26 25.12 23.40 22.27 19.39 20.13 21.19 18.85 20.14 20.93 21.60 21.89 21.70 22.36 22.55 22.86 23.47 24.10 24.79 25.66 27.51 28.12 28.26 27.94 28.37 28.75 28.92 29.08 29.22 29.38 30.10 30.87 30.23 29.81 29.94 30.66 31.42 31.63 32.00 32.01 32.04
24.68 18.55 17.97 21.53 22.36 13.39 11.57 17.04 16.50 16.62 17.29 18.89 18.91 19.58 20.60 21.30 21.00 20.94 22.18 22.61 23.11 24.00 25.00 26.78 28.56 28.66 28.29 28.30 28.23 27.28 27.40 28.17 29.57 31.55 31.41 30.57 29.84 30.19 30.54 31.12 31.80 31.98 32.03
22.22 19.76 18.52 18.11 18.60 18.28 13.46 10.80 12.18 12.84 15.54 19.24 18.01 17.16 17.64 18.23 19.09 19.20 19.62 19.67 20.11 22.00 22.32 24.35 25.94 27.24 28.20 28.27 27.75 26.94 26.17 26.67 28.40 30.22 31.76 30.73 29.81 29.79 30.36 30.75 31.32 31.48 31.82
MSLP
1021.76 1020.92 1020.29 1019.47 1018.42 1017.25 1016.36 1015.35 1014.41 1013.40 1012.00 1010.73 1008.89 1007.56 1006.55 1005.25 1003.86 1003.65 1004.33 1004.79 1006.44 1006.60 1006.50 1006.73 1007.38 1008.02 1008.96 1009.68 1010.52 1010.76 1011.29 1011.58 1012.41 1013.60 1014.39 1015.22 1015.92 1016.21 1016.62 1017.26 1017.89 1018.38 1018.81
1021.69 1020.93 1020.23 1019.55 1018.52 1017.59 1016.62 1015.65 1015.09 1014.12 1012.83 1011.10 1009.22 1008.01 1006.96 1005.55 1004.23 1003.42 1002.98 1002.29 1004.24 1005.29 1005.10 1005.54 1005.96 1007.05 1007.84 1008.64 1009.61 1010.18 1010.51 1010.82 1011.35 1012.48 1013.51 1014.43 1014.85 1015.29 1015.62 1016.30 1016.82 1017.28 1017.66
1022.10 1021.18 1020.34 1019.49 1018.78 1017.92 1017.20 1016.26 1015.87 1014.70 1013.41 1011.92 1010.65 1009.72 1008.56 1007.43 1005.62 1004.19 1002.62 1002.32 1001.63 1003.81 1005.05 1004.40 1004.45 1005.75 1006.55 1007.56 1008.35 1009.23 1009.84 1010.22 1010.57 1011.58 1012.74 1013.50 1014.19 1014.81 1015.60 1015.92 1016.02 1016.24 1016.51
1022.54 1021.81 1020.82 1020.10 1019.44 1018.74 1018.05 1017.36 1016.25 1015.46 1013.94 1012.88 1012.25 1011.12 1010.44 1008.99 1006.59 1005.00 1003.44 1002.85 1001.76 1002.67 1004.50 1004.11 1003.34 1004.68 1005.38 1006.25 1007.08 1007.73 1008.72 1009.42 1010.11 1010.73 1012.12 1012.55 1013.08 1013.95 1014.57 1015.31 1015.72 1015.47 1015.50
1023.03 1022.28 1021.36 1020.81 1019.97 1019.20 1018.43 1017.84 1017.01 1016.07 1014.82 1013.61 1013.23 1012.23 1011.86 1009.81 1007.83 1006.72 1005.17 1004.23 1001.89 1003.77 1005.59 1005.21 1005.10 1005.61 1005.74 1005.18 1005.43 1006.46 1007.57 1008.39 1009.23 1009.92 1011.06 1011.83 1012.24 1013.16 1013.51 1013.68 1014.37 1014.63 1015.01
1023.35 1022.59 1021.69 1021.38 1020.39 1019.56 1018.67 1017.91 1016.90 1015.81 1014.89 1014.18 1013.22 1013.13 1012.72 1011.33 1009.04 1008.22 1006.68 1003.77 1004.54 1005.64 1006.05 1006.21 1005.93 1006.80 1005.82 1006.07 1005.62 1005.31 1005.55 1006.71 1007.85 1008.68 1009.50 1010.43 1010.75 1011.05 1011.83 1012.33 1013.22 1014.44 1015.17
1023.61 1022.99 1022.25 1021.70 1020.91 1020.07 1019.09 1018.26 1017.52 1016.27 1015.58 1015.37 1015.21 1013.80 1013.79 1012.25 1010.86 1009.34 1007.69 1006.30 1007.69 1006.79 1007.16 1007.63 1007.46 1007.34 1007.37 1007.13 1005.68 1005.66 1005.64 1005.32 1005.96 1007.10 1007.78 1008.44 1009.21 1009.49 1010.24 1011.48 1012.13 1012.62 1012.73
1023.75 1023.24 1022.61 1022.14 1021.35 1020.23 1019.80 1018.84 1018.02 1017.26 1016.31 1015.76 1014.96 1014.80 1015.02 1013.81 1011.70 1010.52 1009.60 1007.98 1008.95 1007.32 1007.75 1009.17 1008.97 1007.41 1007.86 1006.72 1005.87 1005.61 1005.77 1005.67 1005.73 1005.94 1006.49 1006.94 1007.79 1008.37 1008.98 1009.57 1010.52 1011.25 1012.02
1023.90 1023.37 1022.65 1022.02 1021.31 1020.84 1019.73 1019.25 1018.46 1017.66 1016.84 1016.12 1015.56 1015.13 1014.93 1013.82 1012.66 1012.16 1009.80 1008.96 1008.40 1007.73 1008.50 1009.00 1008.97 1008.72 1008.44 1007.60 1007.45 1006.62 1006.40 1005.84 1005.87 1005.74 1005.65 1006.11 1006.92 1007.56 1008.09 1009.22 1010.21 1011.14 1012.06
1024.36 1023.56 1022.79 1022.00 1021.19 1020.45 1019.87 1019.32 1018.38 1017.29 1016.58 1016.24 1015.90 1015.15 1015.34 1014.42 1012.99 1011.66 1010.01 1009.62 1007.90 1009.57 1010.02 1009.78 1009.88 1010.22 1009.30 1009.02 1008.31 1007.95 1007.58 1007.49 1006.76 1006.49 1006.21 1006.40 1006.81 1006.96 1007.12 1007.83 1008.65 1009.51 1010.43
1024.79 1023.92 1023.13 1022.37 1021.51 1020.76 1020.19 1019.72 1018.99 1018.01 1017.29 1016.89 1016.50 1016.07 1016.04 1014.92 1013.77 1012.49 1010.96 1010.92 1010.88 1011.17 1010.50 1010.79 1010.84 1011.05 1009.99 1009.10 1008.70 1008.37 1008.10 1008.05 1007.82 1006.90 1006.84 1006.70 1006.40 1006.65 1006.85 1007.30 1007.38 1007.94 1008.56
1024.99 1024.20 1023.53 1022.94 1022.29 1021.50 1020.81 1020.15 1019.40 1018.70 1018.23 1017.68 1017.36 1016.98 1016.54 1015.71 1014.91 1013.56 1012.93 1012.45 1011.52 1011.97 1012.21 1011.73 1011.73 1011.31 1009.95 1009.44 1008.98 1008.86 1008.93 1008.28 1007.39 1007.41 1007.53 1007.31 1006.85 1006.33 1006.06 1006.52 1006.91 1006.99 1006.77
1025.03 1024.35 1023.76 1023.30 1022.76 1022.22 1021.70 1020.98 1020.30 1019.82 1019.15 1018.77 1018.97 1018.66 1017.18 1015.58 1014.84 1014.40 1013.37 1012.63 1012.44 1013.16 1012.39 1011.39 1011.19 1010.52 1009.46 1009.44 1009.29 1009.27 1009.22 1009.28 1009.20 1008.84 1008.39 1008.04 1007.91 1007.53 1007.18 1006.74 1006.36 1006.45 1006.88
1025.54 1024.88 1023.96 1023.41 1022.94 1022.74 1022.22 1021.74 1021.43 1021.07 1020.50 1020.13 1019.50 1018.33 1017.48 1016.50 1016.07 1015.07 1013.97 1013.07 1013.21 1012.52 1010.90 1011.18 1011.11 1010.21 1010.02 1009.66 1009.56 1009.38 1009.37 1009.42 1009.45 1009.08 1008.66 1008.61 1008.29 1007.69 1007.49 1007.67 1007.03 1007.55 1007.25
1026.05 1025.35 1024.69 1023.93 1023.58 1023.18 1022.79 1022.33 1021.92 1021.62 1021.12 1020.41 1019.72 1018.93 1018.04 1016.95 1016.43 1015.70 1014.40 1013.25 1012.77 1011.91 1011.71 1011.72 1010.47 1010.43 1010.87 1010.11 1010.06 1010.02 1009.95 1009.93 1009.61 1009.51 1009.52 1009.20 1008.57 1008.07 1007.75 1007.56 1008.39 1007.96 1007.89
1026.32 1025.76 1025.25 1024.72 1024.02 1023.61 1023.09 1022.51 1021.95 1021.32 1020.86 1020.37 1019.80 1019.03 1017.89 1016.94 1015.74 1014.77 1013.78 1013.23 1012.95 1012.22 1011.81 1011.17 1011.25 1011.88 1011.97 1011.21 1011.10 1010.83 1010.47 1010.48 1010.05 1009.75 1009.81 1009.60 1009.05 1008.74 1008.20 1008.26 1008.61 1008.42 1008.47
1026.53 1026.06 1025.56 1025.08 1024.63 1024.06 1023.26 1022.64 1021.88 1021.30 1020.78 1020.04 1019.07 1018.13 1017.04 1016.22 1015.43 1014.87 1014.18 1013.61 1013.26 1012.53 1012.47 1012.29 1012.62 1012.69 1012.20 1011.97 1011.48 1010.91 1010.80 1011.04 1010.15 1009.92 1010.25 1009.78 1009.26 1008.95 1008.73 1008.64 1008.64 1008.56 1008.55
1026.49 1026.01 1025.55 1025.13 1024.82 1024.35 1023.80 1023.19 1022.54 1021.74 1020.86 1019.99 1019.34 1018.66 1017.90 1017.09 1016.20 1015.58 1014.93 1014.42 1013.88 1013.56 1013.40 1013.53 1013.26 1013.20 1012.68 1012.25 1011.54 1011.01 1010.98 1010.84 1010.40 1010.14 1010.07 1009.89 1009.47 1009.39 1009.12 1009.02 1008.88 1008.90 1008.90
1026.60 1026.04 1025.76 1025.28 1024.95 1024.58 1024.06 1023.42 1022.71 1022.00 1021.45 1020.79 1020.18 1019.23 1018.58 1017.81 1017.11 1016.45 1015.71 1015.49 1015.14 1014.63 1014.95 1014.18 1014.05 1013.29 1012.68 1012.61 1012.05 1011.44 1011.36 1011.02 1010.75 1010.46 1010.07 1009.89 1009.75 1009.69 1009.46 1009.34 1009.23 1009.03 1008.93
1026.92 1026.61 1026.00 1025.48 1025.03 1024.60 1024.15 1023.65 1023.01 1022.38 1021.78 1021.29 1020.78 1020.38 1019.62 1018.67 1018.20 1017.92 1017.26 1016.69 1016.05 1016.11 1015.76 1015.03 1014.58 1013.40 1013.08 1012.99 1012.67 1012.06 1011.65 1011.26 1010.84 1010.53 1010.22 1009.83 1009.57 1009.67 1009.79 1009.44 1009.16 1008.97 1008.85
1027.46 1026.96 1026.41 1025.91 1025.34 1024.83 1024.38 1023.89 1023.56 1023.14 1022.57 1021.93 1021.51 1021.03 1020.69 1020.14 1019.46 1018.74 1018.14 1017.76 1017.48 1017.13 1016.12 1015.22 1014.53 1014.13 1013.84 1013.63 1013.01 1012.28 1011.70 1011.34 1010.76 1010.40 1010.11 1009.80 1009.57 1009.50 1009.16 1009.10 1008.77 1009.01 1008.47
1027.54 1027.25 1026.78 1026.38 1025.96 1025.42 1024.92 1024.49 1024.16 1023.73 1023.21 1022.76 1022.19 1021.54 1021.10 1020.65 1020.18 1019.84 1019.40 1018.75 1018.09 1017.29 1016.24 1015.61 1015.16 1014.50 1014.29 1013.88 1013.04 1012.31 1011.59 1011.22 1010.81 1010.43 1010.04 1009.81 1009.50 1009.36 1009.03 1008.62 1008.56 1008.56 1008.76
1027.43 1027.26 1027.08 1026.77 1026.58 1026.20 1025.63 1025.29 1024.79 1024.44 1023.98 1023.45 1022.90 1022.29 1021.76 1021.36 1021.00 1020.42 1019.74 1018.97 1018.08 1017.15 1016.23 1015.97 1015.72 1015.26 1014.54 1013.98 1013.22 1012.67 1011.83 1011.40 1011.05 1010.67 1009.99 1009.46 1009.27 1009.17 1008.83 1008.48 1008.19 1008.21 1008.27
1027.51 1027.46 1027.17 1027.04 1026.98 1026.84 1026.63 1026.19 1025.58 1025.21 1024.68 1024.06 1023.44 1022.88 1022.21 1021.50 1020.80 1020.15 1019.60 1018.97 1018.34 1017.67 1016.90 1016.27 1016.24 1015.77 1014.90 1014.31 1013.49 1012.61 1012.09 1011.24 1010.88 1010.17 1009.79 1009.34 1009.00 1008.71 1008.31 1008.05 1008.05 1007.71 1007.64
1028.00 1027.94 1027.83 1027.61 1027.36 1027.59 1027.37 1026.95 1026.55 1026.04 1025.50 1024.86 1024.22 1023.59 1023.02 1022.35 1021.59 1020.90 1020.24 1019.79 1019.44 1018.82 1018.27 1017.60 1016.66 1015.61 1015.00 1014.32 1013.48 1012.76 1011.85 1011.13 1010.63 1010.11 1009.40 1009.16 1008.75 1008.36 1008.02 1007.64 1007.53 1007.43 1007.15
1028.42 1028.42 1028.29 1028.11 1027.87 1027.67 1027.86 1027.65 1027.32 1026.78 1026.23 1025.47 1025.07 1024.65 1024.09 1023.39 1022.79 1022.20 1021.51 1020.76 1019.93 1019.09 1018.44 1017.64 1016.67 1015.95 1015.16 1014.65 1013.95 1013.12 1012.20 1011.37 1010.75 1009.82 1009.21 1008.91 1008.40 1007.92 1007.54 1007.10 1006.96 1006.61 1006.75
Wind_Speed
12 12 13 14 17 16 14 15 18 19 18 16 15 15 14 11 15 17 13 13 5 13 21 22 23 21 14 12 9 10 7 7 7 3 4 5 11 13 11 12 11 12 10
14 12 13 13 15 16 16 17 17 18 19 19 18 17 17 15 11 14 23 16 14 5 17 25 23 18 20 15 12 14 13 10 8 7 4 5 9 14 13 13 11 10 11
14 15 13 14 17 16 18 17 15 16 17 19 19 18 17 16 14 8 5 14 20 14 11 25 24 23 22 15 15 15 12 10 11 6 4 3 3 7 7 6 11 11 10
14 14 12 15 14 14 14 16 16 16 18 19 19 18 18 15 14 11 7 6 8 10 2 10 21 21 23 21 16 19 16 13 11 11 3 4 3 3 6 8 7 7 10
13 13 13 14 13 13 12 14 13 13 14 15 17 18 17 15 13 14 10 8 12 13 9 8 12 12 13 13 16 18 18 14 10 12 8 3 4 4 13 7 9 6 8
11 13 12 14 14 13 13 13 14 13 13 15 18 17 18 13 27 24 14 14 15 11 9 10 10 15 13 12 13 18 22 20 17 12 13 11 10 9 8 10 10 5 5
10 12 14 14 15 13 14 12 13 14 13 12 11 14 16 17 24 22 21 14 10 13 13 11 8 9 12 10 8 8 12 23 24 17 16 14 13 11 12 10 10 9 7
11 12 14 13 13 14 12 12 12 10 11 11 12 12 12 11 22 21 16 13 8 14 14 11 9 12 14 14 9 5 7 12 16 13 17 16 14 13 13 13 13 10 2
12 13 15 15 14 12 15 11 10 9 9 11 10 12 13 13 22 19 14 12 11 15 11 10 12 10 16 20 9 8 6 4 5 9 9 14 14 13 14 8 5 5 4
11 14 15 15 14 14 13 12 12 12 11 9 12 12 16 13 20 25 19 9 16 10 8 9 11 13 14 14 8 6 5 7 7 8 4 8 5 11 17 16 11 11 8
10 13 14 15 14 14 14 12 12 12 11 11 12 11 11 13 15 25 25 10 8 7 7 7 6 14 12 12 10 7 6 7 3 2 3 5 11 9 6 10 14 11 11
10 13 12 13 12 12 14 13 14 13 11 11 11 10 9 10 16 20 22 18 14 6 6 5 7 13 11 10 6 9 10 7 5 5 3 3 3 5 10 10 13 11 10
11 11 11 10 10 10 11 13 10 11 10 10 8 9 10 9 10 18 17 17 12 5 4 8 12 13 11 6 10 9 5 4 3 3 3 2 2 4 4 3 4 2 3
10 11 11 10 11 8 8 8 8 8 9 8 9 9 10 9 10 10 11 8 9 5 6 6 6 7 5 5 4 5 4 3 3 3 3 2 2 3 3 2 3 3 1
8 7 9 10 10 10 8 8 7 7 9 8 7 7 9 9 10 16 15 10 9 9 5 4 5 7 7 7 6 6 4 4 4 3 3 3 2 4 4 4 2 2 1
7 6 7 8 9 10 9 7 9 11 16 17 16 11 8 14 19 22 23 20 18 14 5 7 7 6 6 6 6 5 3 6 4 3 2 3 3 2 3 3 1 2 2
8 9 9 7 7 8 9 9 9 8 12 14 19 19 22 22 21 23 24 21 18 13 8 8 7 7 6 6 5 5 5 6 4 3 3 3 2 2 2 1 1 2 2
9 11 7 8 6 6 7 8 8 9 10 10 14 16 21 24 22 21 22 15 10 10 9 7 7 7 7 6 6 5 5 6 6 5 4 4 3 2 2 2 2 2 1
8 7 7 7 6 7 7 7 8 8 8 8 8 10 14 22 19 19 18 11 11 9 9 8 8 7 7 7 6 5 6 5 5 5 4 3 3 3 3 2 2 3 2
7 9 10 8 8 7 6 7 8 9 9 9 9 10 11 12 11 11 10 8 9 9 9 9 8 8 7 8 7 6 5 6 5 5 5 4 3 2 4 4 3 3 2
4 7 11 6 7 7 7 8 8 8 8 9 9 9 15 9 9 9 10 9 9 8 9 9 8 8 8 8 7 7 6 6 6 6 5 4 4 4 3 4 3 3 3
2 4 7 7 7 7 7 7 9 9 9 8 9 11 14 9 9 8 8 9 9 9 8 9 8 8 8 9 9 8 7 7 7 7 6 6 5 5 4 3 3 3 4
3 2 3 5 6 9 8 8 7 8 9 10 9 10 10 9 9 9 9 8 9 9 9 8 8 8 8 9 8 8 8 8 8 7 7 6 5 5 5 5 4 4 4
5 5 5 1 4 6 6 7 7 8 10 9 8 9 9 10 10 11 10 9 10 10 9 9 8 10 10 10 9 9 8 8 8 8 9 7 7 7 6 5 5 6 5
4 3 4 5 2 2 3 4 5 6 7 6 8 9 9 9 10 11 11 10 10 10 11 10 8 11 13 15 15 17 17 17 13 12 6 7 8 9 7 5 6 6 6
3 4 3 4 4 4 2 3 4 4 7 7 7 7 8 9 9 10 10 11 11 11 12 10 12 17 14 11 15 19 18 18 15 16 9 6 7 6 6 7 9 6 6
Wind_Direction
331 341 342 343 346 347 344 348 349 343 341 342 347 341 330 308 199 188 183 163 217 262 211 205 207 203 201 192 191 192 182 164 182 168 162 162 186 198 196 199 197 202 205
337 332 343 346 347 350 352 351 347 349 348 345 358 354 344 330 324 216 198 176 154 338 240 205 201 204 204 195 193 200 196 200 178 168 150 170 189 199 197 188 198 206 212
338 339 346 349 351 349 350 351 346 348 353 357 358 357 348 333 332 336 240 190 174 213 307 216 197 200 200 195 193 201 201 197 207 175 152 137 173 172 187 192 198 202 212
342 341 347 350 352 344 347 343 353 355 359 5 355 355 350 339 352 343 20 42 115 94 355 292 194 200 204 201 197 199 203 198 197 204 154 150 150 163 174 192 200 209 213
344 344 344 349 349 343 343 342 342 353 4 4 358 357 338 353 10 356 6 52 62 82 64 42 39 37 11 233 192 195 196 199 191 201 192 158 159 150 191 185 212 205 220
345 347 350 352 349 346 350 344 346 351 1 359 8 357 346 336 9 11 12 36 53 55 54 56 47 37 8 351 3 203 189 189 200 197 202 206 196 187 178 189 195 181 221
339 349 355 354 355 350 347 351 348 355 358 357 349 3 337 356 1 11 24 43 40 63 51 24 56 43 20 340 350 323 228 191 193 192 200 202 202 191 185 182 190 199 207
347 354 360 357 346 347 350 349 356 354 359 356 2 350 332 341 6 10 26 45 28 51 51 30 16 36 10 354 358 355 246 214 204 195 203 206 207 193 186 194 195 205 21
351 354 356 355 348 351 346 348 346 352 3 355 351 352 341 339 359 8 28 36 31 38 34 31 15 19 9 7 25 21 338 250 319 268 230 198 187 183 182 183 173 149 217
347 352 354 351 346 346 345 351 342 352 352 355 341 349 339 337 354 5 23 10 32 16 15 22 20 359 6 9 16 36 33 357 356 348 290 260 254 206 187 199 199 204 202
336 349 353 355 346 344 345 350 347 353 348 348 342 342 328 344 352 3 12 13 25 2 11 0 357 345 1 10 18 21 6 313 311 6 300 288 226 217 198 216 212 204 207
332 347 350 348 341 341 346 349 352 355 346 349 345 339 335 351 0 4 8 3 9 1 352 349 328 337 13 10 27 8 355 341 353 27 17 4 324 253 228 211 217 223 217
344 343 345 339 331 340 348 350 350 350 347 346 345 342 350 359 356 351 355 358 359 337 329 1 336 337 0 16 15 18 17 18 347 20 35 4 311 279 295 326 358 98 105
345 340 336 341 343 353 352 348 350 345 346 350 346 350 349 354 351 345 355 356 342 335 4 333 320 340 350 2 8 14 15 11 4 352 353 297 293 360 42 323 35 325 167
325 318 329 332 342 351 355 344 350 344 347 343 345 346 341 350 352 352 355 359 353 357 352 331 14 10 357 6 10 2 6 1 28 16 345 337 347 360 4 21 350 332 359
326 332 338 338 341 352 346 341 337 334 339 347 347 0 349 354 357 358 3 3 358 359 9 12 16 5 356 1 1 355 356 356 357 357 331 321 339 338 8 8 359 29 23
341 352 353 347 351 341 338 341 340 343 336 349 350 360 356 355 357 6 5 1 1 7 13 12 7 355 354 350 350 360 354 334 329 359 329 327 339 337 8 359 359 6 21
357 348 348 359 350 341 341 341 340 342 343 350 351 352 358 353 355 359 6 3 7 14 8 358 356 353 349 345 346 353 345 338 338 341 339 330 338 334 343 344 348 331 333
352 358 352 359 356 355 350 340 335 337 343 349 349 351 356 351 357 357 4 14 5 7 354 358 350 350 352 342 339 344 334 328 325 324 327 323 320 323 311 288 282 277 288
356 358 1 357 358 352 350 349 349 350 352 352 359 356 350 350 1 360 1 353 1 358 353 353 348 352 350 344 339 335 332 329 327 322 322 323 321 301 289 286 277 264 230
340 0 1 352 350 347 351 354 354 359 352 349 351 351 348 356 351 352 354 354 349 345 344 346 349 348 346 337 334 331 330 324 325 323 313 309 310 304 290 280 277 280 286
336 357 4 357 350 346 345 358 357 354 356 351 347 350 351 360 359 352 348 349 344 340 345 345 341 343 342 337 335 330 330 325 323 319 316 309 300 287 280 269 259 257 263
314 338 351 10 358 348 347 344 345 350 348 352 346 350 353 355 352 351 347 348 345 340 344 345 340 339 339 336 333 328 326 324 314 304 301 300 291 286 275 267 256 244 234
340 1 342 2 22 360 352 348 343 349 351 348 345 350 347 347 348 351 350 350 349 342 339 339 333 334 334 338 335 336 326 323 313 300 291 287 284 285 272 266 256 242 242
13 356 349 347 335 338 329 343 335 338 335 341 346 347 345 345 347 348 347 347 346 344 340 333 330 341 343 337 340 340 334 333 326 314 300 284 277 274 267 260 257 252 240
17 11 356 349 347 324 9 334 327 332 340 342 350 345 343 343 344 342 344 342 340 339 338 338 340 340 340 340 343 341 337 335 331 328 320 286 287 280 268 258 255 247 242